TimeCDT,TemperatureF,Dew PointF,Humidity,Sea Level PressureIn,VisibilityMPH,Wind Direction,Wind SpeedMPH,Gust SpeedMPH,PrecipitationIn,Events,Conditions,WindDirDegrees,DateUTC
12:00 AM,17.6,-9999,N/A,29.81,9.0,East,8.1,-,N/A,,Overcast,80,2012-10-15 05:00:00
1:00 AM,17,,,29.82,9,East,8.1,,,,Overcast,100,2012-10-15 06:00:00
1:00 AM,17.6,-9999,N/A,29.82,9.0,ESE,8.1,-,N/A,,Overcast,110,2012-10-15 06:00:00
2:00 AM,12.2,-9999,N/A,29.83,9.0,SE,10.4,-,N/A,,Mostly Cloudy,130,2012-10-15 07:00:00
2:05 AM,12.2,-9999,N/A,29.81,9.0,SE,10.4,-,N/A,,Scattered Clouds,130,2012-10-15 07:05:00
2:38 AM,10.4,-9999,N/A,29.82,9.0,SE,10.4,-,N/A,,Mostly Cloudy,130,2012-10-15 07:38:00
3:00 AM,10.4,-9999,N/A,29.84,9.0,SE,10.4,-,N/A,,Overcast,140,2012-10-15 08:00:00
3:26 AM,6.8,-9999,N/A,29.83,9.0,ESE,6.9,-,N/A,,Scattered Clouds,120,2012-10-15 08:26:00
4:00 AM,12,,,29.85,9,SE,13.8,,,,,130,2012-10-15 09:00:00
4:00 AM,12.2,-9999,N/A,29.85,9.0,SE,12.7,-,N/A,,Partly Cloudy,130,2012-10-15 09:00:00
4:05 AM,12.2,-9999,N/A,29.83,9.0,SE,13.8,-,N/A,,Mostly Cloudy,140,2012-10-15 09:05:00
4:14 AM,14.0,-9999,N/A,29.83,9.0,SE,13.8,-,N/A,,Overcast,140,2012-10-15 09:14:00
4:52 AM,14.0,-9999,N/A,29.83,9.0,SSE,10.4,-,N/A,,Overcast,160,2012-10-15 09:52:00
5:00 AM,14.0,-9999,N/A,29.85,9.0,SSE,11.5,-,N/A,,Overcast,160,2012-10-15 10:00:00
6:00 AM,10.4,-9999,N/A,29.86,9.0,SE,11.5,-,N/A,,Overcast,140,2012-10-15 11:00:00
7:00 AM,8,,,29.87,9,ESE,8.1,,,,Overcast,110,2012-10-15 12:00:00
7:00 AM,8.6,-9999,N/A,29.87,9.0,East,8.1,-,N/A,,Overcast,100,2012-10-15 12:00:00
7:07 AM,6.8,-9999,N/A,29.85,9.0,ESE,9.2,-,N/A,,Mostly Cloudy,110,2012-10-15 12:07:00
7:45 AM,8.6,-9999,N/A,29.85,9.0,East,10.4,-,N/A,,Overcast,90,2012-10-15 12:45:00
7:59 AM,6.8,-9999,N/A,29.85,9.0,East,10.4,-,N/A,,Mostly Cloudy,90,2012-10-15 12:59:00
8:00 AM,6.8,-9999,N/A,29.87,9.0,East,10.4,-,N/A,,Mostly Cloudy,90,2012-10-15 13:00:00
8:05 AM,6.8,-9999,N/A,29.85,9.0,East,11.5,-,N/A,,Overcast,90,2012-10-15 13:05:00
8:29 AM,6.8,-9999,N/A,29.85,9.0,East,12.7,-,N/A,,Scattered Clouds,90,2012-10-15 13:29:00
8:31 AM,6.8,-9999,N/A,29.85,9.0,East,12.7,-,N/A,,Mostly Cloudy,90,2012-10-15 13:31:00
8:37 AM,6.8,-9999,N/A,29.85,9.0,East,12.7,-,N/A,,Mostly Cloudy,90,2012-10-15 13:37:00
9:00 AM,8.6,-9999,N/A,29.88,9.0,ESE,12.7,-,N/A,,Overcast,110,2012-10-15 14:00:00
9:29 AM,5.0,-9999,N/A,29.86,9.0,ESE,11.5,-,N/A,,Scattered Clouds,110,2012-10-15 14:29:00
9:36 AM,5.0,-9999,N/A,29.86,9.0,ESE,10.4,-,N/A,,Mostly Cloudy,110,2012-10-15 14:36:00
9:38 AM,5.0,-9999,N/A,29.86,9.0,ESE,9.2,-,N/A,,Overcast,110,2012-10-15 14:38:00
9:44 AM,5.0,-9999,N/A,29.86,9.0,ESE,10.4,-,N/A,,Overcast,120,2012-10-15 14:44:00
9:45 AM,5.0,-9999,N/A,29.86,9.0,ESE,10.4,-,N/A,,Overcast,120,2012-10-15 14:45:00
10:00 AM,5,,,29.89,9,ESE,9.2,,,,Overcast,120,2012-10-15 15:00:00
10:00 AM,5.0,-9999,N/A,29.89,9.0,ESE,9.2,-,N/A,,Overcast,110,2012-10-15 15:00:00
10:06 AM,5.0,-9999,N/A,29.87,9.0,ESE,9.2,-,N/A,,Overcast,110,2012-10-15 15:06:00
10:12 AM,5.0,-9999,N/A,29.87,9.0,ESE,9.2,-,N/A,,Overcast,110,2012-10-15 15:12:00
10:32 AM,6.8,-9999,N/A,29.87,9.0,ESE,10.4,-,N/A,,Overcast,110,2012-10-15 15:32:00
10:41 AM,6.8,-9999,N/A,29.87,9.0,ESE,9.2,-,N/A,,Overcast,110,2012-10-15 15:41:00
10:54 AM,6.8,-9999,N/A,29.87,9.0,ESE,10.4,-,N/A,,Overcast,120,2012-10-15 15:54:00
11:22 AM,6.8,-9999,N/A,29.87,9.0,ESE,10.4,-,N/A,,Scattered Clouds,110,2012-10-15 16:22:00
11:24 AM,6.8,-9999,N/A,29.87,9.0,ESE,9.2,-,N/A,,Mostly Cloudy,110,2012-10-15 16:24:00
11:50 AM,6.8,-9999,N/A,29.87,9.0,ESE,9.2,-,N/A,,Scattered Clouds,120,2012-10-15 16:50:00
12:00 PM,5.0,-9999,N/A,29.89,9.0,ESE,8.1,-,N/A,,Partly Cloudy,110,2012-10-15 17:00:00
12:06 PM,5.0,-9999,N/A,29.87,9.0,ESE,8.1,-,N/A,,Mostly Cloudy,110,2012-10-15 17:06:00
12:31 PM,5.0,-9999,N/A,29.87,9.0,ESE,8.1,-,N/A,,Partly Cloudy,110,2012-10-15 17:31:00
1:00 PM,5,,,29.90,9,East,10.4,,,,,100,2012-10-15 18:00:00
1:41 PM,5.0,-9999,N/A,29.87,9.0,ESE,11.5,-,N/A,,Clear,110,2012-10-15 18:41:00
1:42 PM,5.0,-9999,N/A,29.87,9.0,ESE,11.5,-,N/A,,Clear,110,2012-10-15 18:42:00
1:44 PM,3.2,-9999,N/A,29.88,9.0,ESE,11.5,-,N/A,,Clear,110,2012-10-15 18:44:00
1:47 PM,3.2,-9999,N/A,29.88,9.0,ESE,10.4,-,N/A,,Clear,110,2012-10-15 18:47:00
2:00 PM,5.0,-9999,N/A,29.91,9.0,ESE,11.5,-,N/A,,Clear,120,2012-10-15 19:00:00
3:00 PM,5.0,-9999,N/A,29.91,9.0,ESE,11.5,-,N/A,,Scattered Clouds,110,2012-10-15 20:00:00
3:04 PM,5.0,-9999,N/A,29.89,9.0,ESE,12.7,-,N/A,,Mostly Cloudy,110,2012-10-15 20:04:00
3:19 PM,3.2,-9999,N/A,29.89,9.0,ESE,12.7,-,N/A,,Scattered Clouds,120,2012-10-15 20:19:00
4:00 PM,4,,,29.93,9,ESE,12.7,,,,,110,2012-10-15 21:00:00
4:00 PM,3.2,-9999,N/A,29.93,9.0,ESE,12.7,-,N/A,,Clear,110,2012-10-15 21:00:00
5:00 PM,1.4,-9999,N/A,29.93,9.0,ESE,12.7,-,N/A,,Clear,120,2012-10-15 22:00:00
5:30 PM,1.4,-9999,N/A,29.92,9.0,ESE,15.0,-,N/A,,Clear,120,2012-10-15 22:30:00
6:00 PM,-0.4,-9999,N/A,29.94,9.0,ESE,13.8,-,N/A,,Clear,120,2012-10-15 23:00:00
6:28 PM,-0.4,-9999,N/A,29.92,9.0,SE,13.8,-,N/A,,Mostly Cloudy,130,2012-10-15 23:28:00
6:42 PM,-0.4,-9999,N/A,29.92,2.8,ESE,12.7,-,N/A,,Clear,120,2012-10-15 23:42:00
6:44 PM,-0.4,-9999,N/A,29.92,1.0,ESE,12.7,-,N/A,,Clear,120,2012-10-15 23:44:00
6:45 PM,-0.4,-9999,N/A,29.92,0.6,ESE,12.7,-,N/A,,Clear,120,2012-10-15 23:45:00
6:47 PM,-0.4,-9999,N/A,29.92,0.4,ESE,12.7,-,N/A,,Clear,120,2012-10-15 23:47:00
6:52 PM,1.4,-9999,N/A,29.92,0.1,ESE,11.5,-,N/A,,Clear,120,2012-10-15 23:52:00
7:00 PM,3,,,29.94,0,ESE,12.7,,,,,120,2012-10-16 00:00:00
7:00 PM,3.2,-9999,N/A,29.94,0.1,ESE,12.7,-,N/A,,Clear,120,2012-10-16 00:00:00
7:13 PM,5.0,-9999,N/A,29.93,0.5,ESE,11.5,-,N/A,,Clear,120,2012-10-16 00:13:00
7:20 PM,3.2,-9999,N/A,29.93,1.1,ESE,10.4,-,N/A,,Clear,120,2012-10-16 00:20:00
7:25 PM,3.2,-9999,N/A,29.93,3.5,ESE,9.2,-,N/A,,Clear,120,2012-10-16 00:25:00
7:53 PM,-0.4,-9999,N/A,29.93,9.0,ESE,12.7,-,N/A,,Overcast,110,2012-10-16 00:53:00
7:59 PM,-0.4,-9999,N/A,29.93,9.0,ESE,12.7,-,N/A,,Scattered Clouds,120,2012-10-16 00:59:00
8:00 PM,-0.4,-9999,N/A,29.95,9.0,ESE,12.7,-,N/A,,Partly Cloudy,120,2012-10-16 01:00:00
9:00 PM,-0.4,-9999,N/A,29.94,9.0,ESE,12.7,-,N/A,,Clear,120,2012-10-16 02:00:00
9:01 PM,-0.4,-9999,N/A,29.92,9.0,ESE,12.7,-,N/A,,Clear,120,2012-10-16 02:01:00
10:00 PM,1,,,29.94,9,ESE,12.7,,,,,110,2012-10-16 03:00:00
10:00 PM,1.4,-9999,N/A,29.94,9.0,ESE,12.7,-,N/A,,Clear,110,2012-10-16 03:00:00
10:18 PM,-0.4,-9999,N/A,29.92,9.0,ESE,10.4,-,N/A,,Clear,110,2012-10-16 03:18:00
11:00 PM,1.4,-9999,N/A,29.94,9.0,ESE,9.2,-,N/A,,Clear,110,2012-10-16 04:00:00